User: anonymous   Login
Location: *
(51.8167°N, 12.5000°E)
Time: 23:10:44
(UTC+00:00)
Language:

Cosmos 2263 Rocket - Orbit

View from above orbital plane
View from above orbital plane
View from above satellite
View from above satellite

Ground track
Ground track

The orbit data is extracted from the following two-line orbital elements,

1 22803U 93059B   19325.70345587  .00000105  00000-0  76180-4 0  9992
2 22803  70.9881 179.1832 0015220 117.6583 242.6087 14.16816820353997
Epoch (UTC): 21 November 2019 16:52:58
Eccentricity: 0.0015220
inclination: 70.9881°
perigee height: 825 km
apogee height: 847 km
right ascension of ascending node: 179.1832°
argument of perigee: 117.6583°
revolutions per day: 14.16816820
mean anomaly at epoch: 242.6087°
orbit number at epoch: 35399

The dashed part of the orbit path shows where the satellite is in the earth's shadow,  

DLR